Location: Katherine
(14.4670°S, 132.2670°E)
Time: 22:49:08
(UTC+09:30)

ISS - Pass Details

Date: 22 March 2017
Orbit: 399 x 409 km, 51.6° (Epoch: 29 March)

Event Time Altitude Azimuth Distance (km) Brightness Sun altitude
Rises 19:19:43 0° 221° (SW) 2,312 0.7 -7.9°
Reaches altitude 10° 19:21:48 10° 224° (SW) 1,449 -0.3 -8.4°
Maximum altitude 19:25:01 66° 306° (NW) 437 -3.5 -9.2°
Drops below altitude 10° 19:28:13 10° 29° (NNE) 1,437 -1.3 -10.0°
Enters shadow 19:29:48 - 32° (NNE) 2,087 -0.5 -10.4°
